FENGYUN 1C DEB, 38516

Orbit data source: Space-Track

FENGYUN 1C DEB, 38516 is space debris in SSO originally from a launch on Mon, 10 May 1999 UTC launched from the Taiyaun Space Center, China (TSC). Fengyun 1C debris stems from the Chinese weather satellite Fengyun-1C, which was intentionally destroyed by a Chinese anti-satellite missile in 2007. This event dramatically increased the amount of space debris, with thousands of trackable fragments posing hazards to satellites and human spaceflight. The Fengyun 1C debris cloud has become a focal point in discussions about space sustainability and the need for international regulations to prevent the creation of new debris.

Loading next visibility...
Identifier
38516, 1999-025ETB
Orbit
SSO
Country
Flag of CNCN / PRC
Related business
Manufacturer
Unknown
Mission
Spacecraft
Bus & Motor
Unknown
Mass
Unknown
Launch date (UTC)
1999-05-10 (27 years ago)
Launch vehicle
Unknown
Launch site
Taiyaun Space Center, China (TSC)
Object type
Payload
Rocket body
Debris
Shape & HBR
Unknown shape, 0.1 m
Radar Cross Section
Small (<0.1 m²)

Expand to show TLE details & history
Last TLE update: 5 days ago

TLE from 5 days ago
0 FENGYUN 1C DEB
1 38516U 99025ETB 26260.18898575  .00000235  00000-0  93139-4 0  9994
2 38516  98.4700 243.1087 0110717  19.0263 341.5009 14.34248636888643
Epoch: 2026-09-17T04:32Z
TLE epoch observation values (Epoch: 2026-09-17T04:32:08.368Z)
Latitude
Longitude
178.94403°
Altitude
705.449 km
Speed
7.542 km/s
True Right ascension
16h 12m 26s
True Declination
0° 00' 00"
Sunlit
Object was in daylight at epoch
Visualization orbit readout
Latitude
Unknown
Longitude
Unknown
Altitude
Unknown
Speed
Unknown
Apparent Right ascension
Unknown
Apparent Declination
Unknown
Sunlit
N/A
Visualization observer readout
Local Sidereal Time
05:23:13
Azimuth
Unknown
Elevation
Unknown
Doppler factor
Unknown
Orbital elements
Apogee altitude
853.886 km
Perigee altitude
695.498 km
Semi-major axis
7,152.829 km
Eccentricity
0.01107
Inclination
98.47°
RAAN
243.1087°
Arg. of periapsis
19.0263°
True anomaly
341.093°
Mean anomaly
341.5009°
Eccentric anomaly
341.29749°
Mean motion
3.58778 °/min
Orbital period
100.34 mins
BSTAR
0.000093139
Loading maneuver chart data...
Computing Atmospheric mass density...

Documentation

Showing up to 5 results
|